Location: Biltmore Gardens
(41.6070°N, 83.4666°W)
Time: 13:54:42
(UTC+00:00)

Thor Agena Rocket - Pass Details

Date: 14 July 2020
Orbit: 759 x 808 km, 99.0° (Epoch: 12 August)

Event Time Altitude Azimuth Distance (km) Brightness Sun altitude
Rises 04:14:26 0° 15° (NNE) 3,242 7.6 -23.8°
Reaches altitude 10° 04:16:46 10° 18° (NNE) 2,306 6.6 -23.9°
Maximum altitude 04:21:50 74° 104° (ESE) 792 3.4 -24.3°
Enters shadow 04:22:14 70° 144° (SE) 810 3.3 -24.3°
